Location: Nianha
(10.8000°N, 4.6333°W)
Time: 08:29:26
(UTC+00:00)

Lacrosse 4 Rocket - Pass Details

Date: 14 November 2019
Orbit: 540 x 618 km, 68.0° (Epoch: 17 January)

Event Time Altitude Azimuth Distance (km) Brightness Sun altitude
Exits shadow 04:22:04 12° 26° (NNE) 1,759 4.0 -27.1°
Maximum altitude 04:24:42 20° 69° (ENE) 1,380 3.9 -26.5°
Drops below altitude 10° 04:27:49 10° 116° (ESE) 1,909 5.1 -25.8°
Sets 04:30:35 0° 133° (SE) 2,826 5.9 -25.1°
